DAL1527 KATL-KPBI

Flight info

Callsign DAL1527
Flight time 1h 32m
Altitude 37000
Route GAIRY2 IRQ FISHO Q93 GURGE/N0457F360 Q93 KENLL CPTAN3
Aircraft A321/M-SDE3FGHIRWY/LB1

Departure

Time 2026-05-07 14:48
Airport Hartsfield Jackson Atlanta International Airport (KATL)

Arrival

Time 2026-05-07 16:20
Airport Palm Beach International Airport (KPBI)
Time Latitude Longitude Altitude Speed Heading
2026-05-07 14:30 33.64216 -84.43519 1007 ft 0 kts 269°
2026-05-07 14:35 33.64217 -84.43499 1006 ft 4 kts 259°
2026-05-07 14:36 33.64226 -84.43470 1006 ft 4 kts 223°
2026-05-07 14:36 33.64246 -84.43459 1006 ft 1 kts 180°
2026-05-07 14:36 33.64247 -84.43459 1006 ft 0 kts 180°
2026-05-07 14:38 33.64244 -84.43459 1006 ft 3 kts 180°
2026-05-07 14:39 33.64165 -84.43458 1006 ft 19 kts 180°
2026-05-07 14:39 33.64042 -84.43458 1006 ft 15 kts 180°
2026-05-07 14:39 33.63952 -84.43458 1006 ft 11 kts 180°
2026-05-07 14:39 33.63879 -84.43458 1006 ft 13 kts 180°
2026-05-07 14:40 33.63763 -84.43458 1006 ft 18 kts 181°
2026-05-07 14:40 33.63664 -84.43416 1006 ft 11 kts 108°
2026-05-07 14:40 33.63663 -84.43316 1006 ft 13 kts 91°
2026-05-07 14:40 33.63664 -84.43202 1006 ft 14 kts 89°
2026-05-07 14:41 33.63665 -84.43073 1006 ft 17 kts 90°
2026-05-07 14:41 33.63664 -84.42926 1006 ft 19 kts 90°
2026-05-07 14:41 33.63661 -84.42759 1006 ft 21 kts 95°
2026-05-07 14:41 33.63655 -84.42574 1007 ft 23 kts 89°
2026-05-07 14:42 33.63602 -84.42411 1007 ft 21 kts 139°
2026-05-07 14:42 33.63585 -84.42285 1007 ft 14 kts 94°
2026-05-07 14:42 33.63583 -84.42162 1007 ft 16 kts 86°
2026-05-07 14:42 33.63583 -84.42024 1007 ft 18 kts 94°
2026-05-07 14:43 33.63582 -84.41868 1006 ft 20 kts 90°
2026-05-07 14:43 33.63582 -84.41712 1006 ft 17 kts 89°
2026-05-07 14:43 33.63582 -84.41584 1006 ft 13 kts 90°
2026-05-07 14:43 33.63582 -84.41483 1005 ft 12 kts 90°
2026-05-07 14:44 33.63582 -84.41363 1005 ft 16 kts 90°
2026-05-07 14:44 33.63582 -84.41253 1006 ft 11 kts 90°
2026-05-07 14:44 33.63581 -84.41172 1006 ft 10 kts 90°
2026-05-07 14:44 33.63581 -84.41066 1006 ft 13 kts 90°
2026-05-07 14:45 33.63580 -84.40975 1006 ft 9 kts 90°
2026-05-07 14:45 33.63572 -84.40931 1006 ft 1 kts 114°
2026-05-07 14:45 33.63572 -84.40930 1006 ft 0 kts 115°
2026-05-07 14:46 33.63571 -84.40928 1006 ft 2 kts 118°
2026-05-07 14:46 33.63555 -84.40913 1007 ft 4 kts 152°
2026-05-07 14:46 33.63517 -84.40905 1007 ft 7 kts 175°
2026-05-07 14:46 33.63473 -84.40921 1007 ft 5 kts 242°
2026-05-07 14:47 33.63471 -84.40958 1007 ft 9 kts 269°
2026-05-07 14:47 33.63471 -84.41310 1006 ft 77 kts 270°
2026-05-07 14:47 33.63471 -84.42173 1007 ft 131 kts 270°
2026-05-07 14:47 33.63473 -84.43463 1010 ft 172 kts 271°
2026-05-07 14:48 33.63467 -84.44937 1468 ft 177 kts 272°
2026-05-07 14:48 33.63447 -84.46376 2137 ft 172 kts 272°
2026-05-07 14:48 33.63253 -84.47809 2718 ft 175 kts 253°
2026-05-07 14:48 33.62703 -84.49146 2994 ft 189 kts 244°
2026-05-07 14:49 33.62069 -84.50629 3120 ft 212 kts 245°
2026-05-07 14:49 33.61371 -84.52308 3369 ft 238 kts 245°
2026-05-07 14:49 33.60612 -84.54135 4002 ft 247 kts 245°
2026-05-07 14:49 33.59838 -84.55965 4915 ft 247 kts 242°
2026-05-07 14:50 33.58707 -84.57531 5760 ft 254 kts 222°
2026-05-07 14:50 33.57062 -84.58412 6512 ft 269 kts 197°
2026-05-07 14:50 33.55152 -84.58522 7256 ft 276 kts 187°
2026-05-07 14:50 33.53234 -84.58510 8080 ft 278 kts 187°
2026-05-07 14:51 33.51289 -84.58488 8815 ft 282 kts 187°
2026-05-07 14:51 33.49310 -84.58407 9557 ft 291 kts 179°
2026-05-07 14:51 33.47374 -84.57455 10204 ft 317 kts 149°
2026-05-07 14:51 33.45909 -84.55365 10594 ft 347 kts 120°
2026-05-07 14:52 33.45209 -84.52488 10754 ft 374 kts 99°
2026-05-07 14:52 33.45025 -84.49287 10930 ft 395 kts 90°
2026-05-07 14:52 33.45133 -84.45960 11417 ft 404 kts 86°
2026-05-07 14:52 33.45341 -84.42579 11999 ft 410 kts 85°
2026-05-07 14:53 33.45528 -84.39146 12562 ft 416 kts 87°
2026-05-07 14:53 33.45643 -84.35666 13189 ft 422 kts 89°
2026-05-07 14:53 33.45789 -84.32133 13758 ft 427 kts 84°
2026-05-07 14:53 33.46050 -84.28564 14275 ft 433 kts 84°
2026-05-07 14:54 33.46308 -84.24964 14820 ft 438 kts 84°
2026-05-07 14:54 33.46576 -84.21307 15330 ft 443 kts 84°
2026-05-07 14:54 33.46855 -84.17615 15814 ft 448 kts 84°
2026-05-07 14:54 33.47144 -84.13885 16298 ft 453 kts 84°
2026-05-07 14:55 33.47439 -84.10113 16773 ft 458 kts 84°
2026-05-07 14:55 33.47742 -84.06293 17222 ft 462 kts 84°
2026-05-07 14:55 33.48049 -84.02439 17717 ft 467 kts 84°
2026-05-07 14:55 33.48354 -83.98550 18215 ft 472 kts 84°
2026-05-07 14:56 33.48660 -83.94614 18609 ft 476 kts 84°
2026-05-07 14:56 33.48964 -83.90648 19107 ft 479 kts 84°
2026-05-07 14:56 33.49269 -83.86662 19589 ft 482 kts 84°
2026-05-07 14:56 33.49573 -83.82701 20045 ft 484 kts 84°
2026-05-07 14:57 33.49883 -83.78671 20453 ft 488 kts 84°
2026-05-07 14:57 33.50192 -83.74615 20869 ft 491 kts 85°
2026-05-07 14:57 33.50497 -83.70537 21316 ft 493 kts 85°
2026-05-07 14:57 33.50801 -83.66434 21730 ft 496 kts 85°
2026-05-07 14:58 33.51132 -83.62307 22160 ft 499 kts 83°
2026-05-07 14:58 33.51589 -83.58175 22606 ft 503 kts 81°
2026-05-07 14:58 33.52163 -83.54024 23116 ft 507 kts 79°
2026-05-07 14:58 33.52804 -83.49859 23530 ft 510 kts 78°
2026-05-07 14:59 33.53466 -83.45672 23905 ft 513 kts 79°
2026-05-07 14:59 33.54115 -83.41445 24282 ft 516 kts 79°
2026-05-07 14:59 33.54734 -83.37203 24622 ft 518 kts 80°
2026-05-07 14:59 33.55328 -83.32938 24963 ft 520 kts 81°
2026-05-07 15:00 33.55907 -83.28648 25294 ft 522 kts 81°
2026-05-07 15:00 33.56480 -83.24341 25625 ft 525 kts 81°
2026-05-07 15:00 33.57054 -83.20011 25951 ft 527 kts 81°
2026-05-07 15:00 33.57634 -83.15669 26259 ft 529 kts 81°
2026-05-07 15:01 33.58225 -83.11298 26592 ft 531 kts 81°
2026-05-07 15:01 33.58822 -83.06925 26938 ft 533 kts 81°
2026-05-07 15:01 33.59423 -83.02528 27274 ft 535 kts 81°
2026-05-07 15:01 33.60022 -82.98117 27589 ft 537 kts 81°
2026-05-07 15:02 33.60617 -82.93685 27878 ft 539 kts 81°
2026-05-07 15:02 33.61209 -82.89233 28163 ft 541 kts 81°
2026-05-07 15:02 33.61801 -82.84766 28445 ft 543 kts 81°
2026-05-07 15:02 33.62396 -82.80280 28722 ft 545 kts 81°
2026-05-07 15:03 33.62991 -82.75785 29044 ft 547 kts 81°
2026-05-07 15:03 33.63589 -82.71276 29409 ft 547 kts 81°
2026-05-07 15:03 33.64177 -82.66818 29721 ft 549 kts 81°
2026-05-07 15:03 33.64769 -82.62288 30008 ft 551 kts 81°
2026-05-07 15:04 33.65362 -82.57749 30334 ft 550 kts 81°
2026-05-07 15:04 33.65957 -82.53219 30654 ft 550 kts 81°
2026-05-07 15:04 33.66553 -82.48689 30882 ft 549 kts 81°
2026-05-07 15:04 33.67147 -82.44159 31204 ft 549 kts 81°
2026-05-07 15:05 33.67736 -82.39634 31541 ft 549 kts 82°
2026-05-07 15:05 33.68319 -82.35119 31917 ft 547 kts 82°
2026-05-07 15:05 33.68895 -82.30604 32264 ft 546 kts 82°
2026-05-07 15:05 33.69411 -82.26096 32588 ft 545 kts 87°
2026-05-07 15:06 33.69453 -82.21564 32903 ft 541 kts 97°
2026-05-07 15:06 33.68939 -82.17109 33212 ft 535 kts 107°
2026-05-07 15:06 33.67911 -82.12852 33530 ft 528 kts 117°
2026-05-07 15:06 33.66418 -82.08874 33894 ft 518 kts 126°
2026-05-07 15:07 33.64535 -82.05242 34206 ft 510 kts 132°
2026-05-07 15:07 33.62543 -82.01717 34478 ft 510 kts 132°
2026-05-07 15:07 33.60551 -81.98199 34741 ft 510 kts 132°
2026-05-07 15:07 33.58554 -81.94682 34998 ft 510 kts 133°
2026-05-07 15:08 33.56580 -81.91214 35262 ft 510 kts 133°
2026-05-07 15:08 33.54555 -81.87658 35519 ft 510 kts 133°
2026-05-07 15:08 33.52553 -81.84148 35767 ft 510 kts 133°
2026-05-07 15:08 33.50574 -81.80678 36004 ft 511 kts 133°
2026-05-07 15:09 33.48571 -81.77171 36257 ft 511 kts 133°
2026-05-07 15:09 33.46561 -81.73653 36520 ft 511 kts 133°
2026-05-07 15:09 33.44553 -81.70141 36746 ft 511 kts 133°
2026-05-07 15:09 33.42538 -81.66623 36893 ft 512 kts 133°
2026-05-07 15:10 33.38522 -81.59601 36922 ft 510 kts 131°
2026-05-07 15:10 33.34521 -81.52614 36923 ft 508 kts 131°
2026-05-07 15:11 33.30183 -81.46066 36925 ft 493 kts 146°
2026-05-07 15:11 33.27583 -81.43486 36925 ft 482 kts 155°
2026-05-07 15:11 33.24755 -81.41420 36925 ft 470 kts 163°
2026-05-07 15:12 33.19791 -81.39154 36925 ft 451 kts 177°
2026-05-07 15:12 33.13695 -81.37591 36926 ft 448 kts 179°
2026-05-07 15:13 33.07597 -81.36041 36927 ft 448 kts 178°
2026-05-07 15:13 33.01493 -81.34493 36969 ft 448 kts 179°
2026-05-07 15:14 32.95385 -81.32955 36971 ft 448 kts 179°
2026-05-07 15:14 32.89282 -81.31420 36969 ft 449 kts 179°
2026-05-07 15:15 32.83176 -81.29882 36942 ft 448 kts 178°
2026-05-07 15:15 32.77071 -81.28342 36943 ft 449 kts 178°
2026-05-07 15:16 32.70993 -81.26812 36937 ft 450 kts 178°
2026-05-07 15:16 32.64865 -81.25272 36934 ft 450 kts 178°
2026-05-07 15:17 32.58731 -81.23742 36941 ft 451 kts 178°
2026-05-07 15:17 32.52592 -81.22204 36926 ft 451 kts 176°
2026-05-07 15:18 32.46454 -81.21246 36932 ft 437 kts 189°
2026-05-07 15:18 32.40409 -81.21545 36946 ft 435 kts 191°
2026-05-07 15:19 32.34350 -81.21855 36979 ft 436 kts 191°
2026-05-07 15:19 32.28290 -81.22155 36973 ft 436 kts 191°
2026-05-07 15:20 32.22210 -81.22462 36984 ft 438 kts 191°
2026-05-07 15:20 32.16112 -81.22768 36993 ft 439 kts 191°
2026-05-07 15:21 32.10006 -81.23066 37000 ft 439 kts 191°
2026-05-07 15:21 32.03892 -81.23372 36952 ft 440 kts 191°
2026-05-07 15:22 31.97772 -81.23677 36959 ft 441 kts 190°
2026-05-07 15:22 31.91546 -81.23163 36967 ft 452 kts 182°
2026-05-07 15:23 31.85284 -81.22372 36971 ft 453 kts 182°
2026-05-07 15:23 31.79006 -81.21577 36980 ft 454 kts 182°
2026-05-07 15:24 31.72769 -81.20794 36968 ft 454 kts 182°
2026-05-07 15:24 31.66478 -81.20011 36980 ft 455 kts 182°
2026-05-07 15:25 31.60145 -81.19220 36997 ft 455 kts 182°
2026-05-07 15:25 31.53884 -81.18446 37022 ft 455 kts 182°
2026-05-07 15:26 31.47577 -81.17661 37003 ft 456 kts 181°
2026-05-07 15:26 31.41269 -81.16875 37021 ft 456 kts 181°
2026-05-07 15:27 31.34960 -81.16094 37029 ft 457 kts 181°
2026-05-07 15:27 31.28628 -81.15319 37039 ft 457 kts 181°
2026-05-07 15:28 31.22293 -81.14559 37050 ft 457 kts 181°
2026-05-07 15:28 31.15958 -81.13802 37021 ft 458 kts 181°
2026-05-07 15:29 31.09607 -81.13038 37032 ft 459 kts 181°
2026-05-07 15:29 31.03251 -81.12268 37041 ft 460 kts 181°
2026-05-07 15:30 30.96888 -81.11498 37053 ft 460 kts 181°
2026-05-07 15:30 30.90521 -81.10735 37032 ft 460 kts 181°
2026-05-07 15:31 30.84197 -81.09982 37049 ft 460 kts 181°
2026-05-07 15:31 30.77834 -81.09214 37058 ft 460 kts 181°
2026-05-07 15:32 30.71466 -81.08450 37074 ft 460 kts 181°
2026-05-07 15:32 30.65102 -81.07692 37057 ft 460 kts 181°
2026-05-07 15:33 30.58796 -81.07631 37059 ft 450 kts 191°
2026-05-07 15:33 30.52532 -81.08013 37061 ft 451 kts 190°
2026-05-07 15:34 30.46268 -81.08393 37062 ft 451 kts 190°
2026-05-07 15:34 30.39992 -81.08769 37065 ft 451 kts 190°
2026-05-07 15:35 30.33719 -81.09143 37066 ft 451 kts 190°
2026-05-07 15:35 30.27446 -81.09517 37068 ft 451 kts 190°
2026-05-07 15:36 30.21171 -81.09895 37068 ft 452 kts 190°
2026-05-07 15:36 30.14895 -81.10270 37070 ft 452 kts 190°
2026-05-07 15:37 30.08618 -81.10645 37053 ft 452 kts 190°
2026-05-07 15:37 30.02342 -81.11022 37061 ft 452 kts 190°
2026-05-07 15:38 29.96059 -81.11402 37065 ft 452 kts 190°
2026-05-07 15:38 29.89773 -81.11770 37069 ft 452 kts 190°
2026-05-07 15:39 29.83525 -81.12136 37070 ft 452 kts 190°
2026-05-07 15:39 29.77220 -81.12392 37062 ft 454 kts 188°
2026-05-07 15:40 29.70889 -81.12385 37069 ft 456 kts 186°
2026-05-07 15:40 29.64549 -81.12332 37073 ft 455 kts 187°
2026-05-07 15:41 29.58205 -81.12122 37081 ft 462 kts 179°
2026-05-07 15:41 29.51929 -81.10096 37054 ft 474 kts 166°
2026-05-07 15:42 29.45733 -81.07509 37061 ft 474 kts 166°
2026-05-07 15:42 29.39519 -81.04934 37062 ft 475 kts 166°
2026-05-07 15:43 29.33300 -81.02364 37072 ft 475 kts 166°
2026-05-07 15:43 29.27071 -80.99798 37086 ft 475 kts 166°
2026-05-07 15:44 29.20887 -80.97250 37063 ft 476 kts 166°
2026-05-07 15:44 29.14657 -80.94676 37076 ft 477 kts 166°
2026-05-07 15:45 29.08410 -80.92111 37084 ft 477 kts 166°
2026-05-07 15:45 29.02158 -80.89555 37092 ft 478 kts 166°
2026-05-07 15:46 28.92773 -80.85700 37063 ft 478 kts 165°
2026-05-07 15:47 28.86510 -80.83135 37060 ft 479 kts 165°
2026-05-07 15:47 28.80236 -80.80562 37064 ft 480 kts 165°
2026-05-07 15:47 28.77094 -80.79279 36886 ft 480 kts 165°
2026-05-07 15:48 28.73950 -80.77997 36635 ft 480 kts 165°
2026-05-07 15:48 28.70809 -80.76717 36388 ft 480 kts 165°
2026-05-07 15:48 28.67666 -80.75439 36141 ft 480 kts 166°
2026-05-07 15:48 28.64514 -80.74163 35902 ft 480 kts 166°
2026-05-07 15:49 28.61372 -80.72891 35648 ft 480 kts 165°
2026-05-07 15:49 28.58224 -80.71615 35417 ft 480 kts 165°
2026-05-07 15:49 28.55116 -80.70352 35179 ft 480 kts 165°
2026-05-07 15:49 28.51931 -80.69058 34940 ft 481 kts 166°
2026-05-07 15:50 28.48821 -80.67797 34713 ft 481 kts 166°
2026-05-07 15:50 28.45673 -80.66520 34489 ft 481 kts 166°
2026-05-07 15:50 28.42522 -80.65239 34261 ft 481 kts 166°
2026-05-07 15:50 28.39370 -80.63955 33808 ft 482 kts 166°
2026-05-07 15:51 28.36202 -80.62670 32915 ft 486 kts 166°
2026-05-07 15:51 28.32992 -80.61374 31877 ft 493 kts 165°
2026-05-07 15:51 28.29756 -80.60067 31261 ft 492 kts 165°
2026-05-07 15:51 28.26539 -80.58765 30636 ft 490 kts 165°
2026-05-07 15:52 28.23337 -80.57474 30011 ft 488 kts 165°
2026-05-07 15:52 28.20148 -80.56192 29358 ft 484 kts 165°
2026-05-07 15:52 28.16992 -80.54920 28779 ft 479 kts 165°
2026-05-07 15:52 28.13910 -80.53673 28346 ft 464 kts 165°
2026-05-07 15:53 28.10894 -80.52453 27605 ft 456 kts 165°
2026-05-07 15:53 28.07931 -80.51257 26827 ft 449 kts 165°
2026-05-07 15:53 28.05006 -80.50079 26040 ft 444 kts 165°
2026-05-07 15:53 28.02111 -80.48917 25258 ft 438 kts 165°
2026-05-07 15:54 27.99256 -80.47777 24525 ft 433 kts 165°
2026-05-07 15:54 27.96437 -80.46653 24026 ft 425 kts 165°
2026-05-07 15:54 27.93625 -80.45532 24098 ft 431 kts 165°
2026-05-07 15:54 27.90800 -80.44404 24102 ft 430 kts 165°
2026-05-07 15:55 27.87990 -80.43274 23824 ft 427 kts 165°
2026-05-07 15:55 27.85251 -80.42168 23081 ft 421 kts 165°
2026-05-07 15:55 27.82516 -80.41065 22264 ft 415 kts 164°
2026-05-07 15:55 27.79808 -80.39976 21486 ft 410 kts 164°
2026-05-07 15:56 27.77137 -80.38907 20739 ft 405 kts 164°
2026-05-07 15:56 27.74498 -80.37854 20020 ft 399 kts 164°
2026-05-07 15:56 27.71894 -80.36816 19312 ft 394 kts 163°
2026-05-07 15:56 27.69322 -80.35790 18631 ft 390 kts 163°
2026-05-07 15:57 27.66776 -80.34771 18162 ft 387 kts 162°
2026-05-07 15:57 27.64315 -80.33542 17771 ft 385 kts 157°
2026-05-07 15:57 27.61904 -80.32264 17024 ft 380 kts 157°
2026-05-07 15:57 27.59528 -80.31005 16312 ft 375 kts 157°
2026-05-07 15:58 27.57178 -80.29761 15641 ft 370 kts 156°
2026-05-07 15:58 27.54861 -80.28536 14981 ft 366 kts 156°
2026-05-07 15:58 27.52573 -80.27330 14350 ft 361 kts 156°
2026-05-07 15:58 27.50306 -80.26138 14089 ft 359 kts 156°
2026-05-07 15:59 27.48048 -80.24951 13810 ft 356 kts 156°
2026-05-07 15:59 27.45819 -80.23779 13095 ft 352 kts 156°
2026-05-07 15:59 27.43614 -80.22618 12424 ft 347 kts 156°
2026-05-07 15:59 27.41445 -80.21475 11761 ft 342 kts 156°
2026-05-07 16:00 27.39308 -80.20351 11135 ft 337 kts 156°
2026-05-07 16:00 27.37230 -80.19257 10526 ft 331 kts 156°
2026-05-07 16:00 27.35161 -80.18168 10120 ft 327 kts 156°
2026-05-07 16:00 27.33140 -80.17103 9985 ft 311 kts 156°
2026-05-07 16:01 27.31229 -80.16097 9992 ft 297 kts 156°
2026-05-07 16:01 27.29376 -80.15124 9992 ft 293 kts 156°
2026-05-07 16:01 27.27534 -80.14160 9992 ft 292 kts 156°
2026-05-07 16:01 27.25687 -80.13193 9992 ft 291 kts 156°
2026-05-07 16:02 27.23849 -80.12257 9747 ft 287 kts 157°
2026-05-07 16:02 27.22018 -80.11362 9121 ft 286 kts 158°
2026-05-07 16:02 27.20219 -80.10500 8544 ft 284 kts 158°
2026-05-07 16:02 27.18403 -80.09637 7977 ft 282 kts 158°
2026-05-07 16:03 27.16605 -80.08780 7415 ft 280 kts 158°
2026-05-07 16:03 27.14821 -80.07925 6871 ft 278 kts 158°
2026-05-07 16:03 27.13048 -80.07074 6320 ft 276 kts 158°
2026-05-07 16:03 27.11295 -80.06217 5753 ft 274 kts 157°
2026-05-07 16:04 27.09559 -80.05358 5209 ft 271 kts 156°
2026-05-07 16:04 27.07842 -80.04504 4660 ft 269 kts 156°
2026-05-07 16:04 27.06135 -80.03652 4131 ft 267 kts 156°
2026-05-07 16:04 27.05011 -80.03093 4032 ft 267 kts 157°
2026-05-07 16:05 27.02745 -80.01967 3988 ft 269 kts 157°
2026-05-07 16:05 27.01029 -80.01117 3993 ft 270 kts 156°
2026-05-07 16:05 26.99349 -80.00287 3990 ft 256 kts 156°
2026-05-07 16:05 26.97768 -79.99503 3989 ft 240 kts 156°
2026-05-07 16:06 26.96777 -79.99011 3994 ft 230 kts 157°
2026-05-07 16:06 26.95323 -79.98330 4008 ft 226 kts 163°
2026-05-07 16:06 26.93808 -79.97948 3738 ft 222 kts 172°
2026-05-07 16:06 26.92285 -79.97650 3379 ft 222 kts 172°
2026-05-07 16:07 26.90764 -79.97350 3017 ft 221 kts 172°
2026-05-07 16:07 26.89272 -79.97053 2780 ft 214 kts 172°
2026-05-07 16:07 26.87805 -79.96762 2445 ft 214 kts 172°
2026-05-07 16:07 26.86344 -79.96472 2129 ft 213 kts 172°
2026-05-07 16:08 26.84890 -79.96184 1994 ft 212 kts 173°
2026-05-07 16:08 26.83476 -79.95903 1990 ft 198 kts 172°
2026-05-07 16:08 26.82154 -79.95641 2006 ft 189 kts 173°
2026-05-07 16:08 26.80868 -79.95388 2006 ft 186 kts 172°
2026-05-07 16:09 26.79600 -79.95141 2002 ft 185 kts 172°
2026-05-07 16:09 26.78332 -79.95013 1983 ft 183 kts 190°
2026-05-07 16:09 26.77189 -79.95608 2004 ft 183 kts 214°
2026-05-07 16:09 26.76164 -79.96437 1913 ft 182 kts 217°
2026-05-07 16:10 26.75172 -79.97299 1806 ft 181 kts 218°
2026-05-07 16:10 26.74185 -79.98176 1718 ft 181 kts 218°
2026-05-07 16:10 26.73229 -79.99059 1472 ft 174 kts 220°
2026-05-07 16:10 26.72358 -79.99929 1287 ft 160 kts 223°
2026-05-07 16:11 26.71605 -80.00777 1270 ft 149 kts 226°
2026-05-07 16:11 26.70922 -80.01613 1096 ft 143 kts 227°
2026-05-07 16:11 26.70288 -80.02439 977 ft 137 kts 229°
2026-05-07 16:11 26.69673 -80.03271 825 ft 140 kts 229°
2026-05-07 16:12 26.69076 -80.04124 712 ft 141 kts 230°
2026-05-07 16:12 26.68498 -80.05003 525 ft 142 kts 230°
2026-05-07 16:12 26.68101 -80.06022 377 ft 149 kts 264°
2026-05-07 16:12 26.68185 -80.07162 208 ft 146 kts 270°
2026-05-07 16:13 26.68208 -80.08289 45 ft 146 kts 274°
2026-05-07 16:13 26.68213 -80.09331 87 ft 128 kts 265°
2026-05-07 16:13 26.68270 -80.10373 761 ft 136 kts 268°
2026-05-07 16:13 26.68378 -80.11479 1430 ft 155 kts 276°
2026-05-07 16:14 26.68617 -80.12723 1902 ft 174 kts 289°
2026-05-07 16:14 26.69474 -80.13786 2043 ft 202 kts 329°
2026-05-07 16:14 26.70919 -80.14135 2297 ft 225 kts 358°
2026-05-07 16:14 26.72507 -80.14061 2845 ft 232 kts
2026-05-07 16:15 26.74109 -80.13941 2975 ft 228 kts
2026-05-07 16:15 26.75635 -80.13528 2990 ft 231 kts 28°
2026-05-07 16:15 26.76772 -80.12270 3003 ft 234 kts 61°
2026-05-07 16:15 26.77138 -80.10518 3001 ft 233 kts 92°
2026-05-07 16:16 26.77004 -80.08727 2999 ft 225 kts 97°
2026-05-07 16:16 26.76814 -80.07061 3003 ft 204 kts 98°
2026-05-07 16:16 26.76643 -80.05604 3018 ft 175 kts 98°
2026-05-07 16:16 26.76352 -80.04346 2721 ft 166 kts 119°
2026-05-07 16:17 26.75560 -80.03432 2361 ft 161 kts 150°
2026-05-07 16:17 26.74544 -80.02983 1927 ft 155 kts 168°
2026-05-07 16:17 26.73513 -80.02838 1640 ft 144 kts 178°
2026-05-07 16:17 26.72524 -80.02777 1232 ft 143 kts 178°
2026-05-07 16:18 26.71550 -80.02774 981 ft 138 kts 183°
2026-05-07 16:18 26.70606 -80.02913 881 ft 136 kts 194°
2026-05-07 16:18 26.69739 -80.03356 892 ft 140 kts 213°
2026-05-07 16:18 26.69070 -80.04152 651 ft 140 kts 238°
2026-05-07 16:19 26.68611 -80.05126 492 ft 143 kts 239°
2026-05-07 16:19 26.68205 -80.06155 371 ft 147 kts 248°
2026-05-07 16:19 26.68136 -80.07268 163 ft 144 kts 273°
2026-05-07 16:19 26.68214 -80.08386 35 ft 141 kts 270°
2026-05-07 16:20 26.68253 -80.09297 22 ft 77 kts 274°
2026-05-07 16:20 26.68281 -80.09706 22 ft 45 kts 275°
2026-05-07 16:20 26.68299 -80.09954 22 ft 23 kts 286°
2026-05-07 16:20 26.68390 -80.09963 22 ft 15 kts 76°
2026-05-07 16:21 26.68391 -80.09849 22 ft 15 kts 96°
2026-05-07 16:21 26.68383 -80.09741 22 ft 14 kts 95°
2026-05-07 16:21 26.68379 -80.09630 22 ft 14 kts 91°
2026-05-07 16:21 26.68375 -80.09522 22 ft 14 kts 93°
2026-05-07 16:22 26.68370 -80.09416 22 ft 13 kts 93°
2026-05-07 16:22 26.68365 -80.09313 22 ft 13 kts 92°
2026-05-07 16:22 26.68361 -80.09215 22 ft 13 kts 92°
2026-05-07 16:22 26.68370 -80.09118 23 ft 12 kts 50°
2026-05-07 16:23 26.68446 -80.09099 22 ft 11 kts
2026-05-07 16:23 26.68523 -80.09094 22 ft 12 kts
2026-05-07 16:23 26.68608 -80.09090 22 ft 12 kts
2026-05-07 16:23 26.68642 -80.09037 22 ft 9 kts 91°
2026-05-07 16:24 26.68640 -80.09003 22 ft 3 kts 94°
2026-05-07 16:24 26.68640 -80.09000 22 ft 0 kts 94°